Year,Month,Day,Hour,Minute,Value (Times are PST for temperature in C)
2013,08,09,00,00,16.30
2013,08,09,00,01,16.30
2013,08,09,00,02,16.40
2013,08,09,00,03,16.40
2013,08,09,00,04,16.40
2013,08,09,00,05,16.40
2013,08,09,00,06,16.40
2013,08,09,00,07,16.50
2013,08,09,00,08,16.60
2013,08,09,00,09,16.60
2013,08,09,00,10,16.60
2013,08,09,00,11,16.60
2013,08,09,00,12,16.60
2013,08,09,00,13,16.70
2013,08,09,00,14,16.70
2013,08,09,00,15,16.70
2013,08,09,00,16,16.70
2013,08,09,00,17,16.70
2013,08,09,00,18,16.70
2013,08,09,00,19,16.70
2013,08,09,00,20,16.70
2013,08,09,00,21,16.70
2013,08,09,00,22,16.70
2013,08,09,00,23,16.70
2013,08,09,00,24,16.80
2013,08,09,00,25,16.80
2013,08,09,00,26,16.80
2013,08,09,00,27,16.80
2013,08,09,00,28,16.80
2013,08,09,00,29,16.80
2013,08,09,00,30,16.80
2013,08,09,00,31,16.80
2013,08,09,00,32,16.80
2013,08,09,00,33,16.80
2013,08,09,00,34,16.80
2013,08,09,00,35,16.90
2013,08,09,00,36,16.90
2013,08,09,00,37,16.90
2013,08,09,00,38,16.90
2013,08,09,00,39,16.90
2013,08,09,00,40,16.90
2013,08,09,00,41,16.90
2013,08,09,00,42,16.90
2013,08,09,00,43,16.90
2013,08,09,00,44,16.90
2013,08,09,00,45,16.90
2013,08,09,00,46,16.90
2013,08,09,00,47,17.00
2013,08,09,00,48,17.00
2013,08,09,00,49,17.00
2013,08,09,00,50,17.00
2013,08,09,00,51,17.00
2013,08,09,00,52,17.00
2013,08,09,00,53,17.00
2013,08,09,00,54,17.00
2013,08,09,00,55,17.00
2013,08,09,00,56,17.00
2013,08,09,00,57,16.90
2013,08,09,00,58,16.90
2013,08,09,00,59,16.90
2013,08,09,01,00,16.90
2013,08,09,01,01,16.90
2013,08,09,01,02,16.90
2013,08,09,01,03,16.90
2013,08,09,01,04,17.00
2013,08,09,01,05,17.00
2013,08,09,01,06,17.00
2013,08,09,01,07,17.00
2013,08,09,01,08,17.00
2013,08,09,01,09,17.00
2013,08,09,01,10,17.00
2013,08,09,01,11,17.00
2013,08,09,01,12,17.00
2013,08,09,01,13,17.00
2013,08,09,01,14,17.00
2013,08,09,01,15,17.00
2013,08,09,01,16,17.00
2013,08,09,01,17,17.10
2013,08,09,01,18,17.10
2013,08,09,01,19,17.10
2013,08,09,01,20,17.10
2013,08,09,01,21,17.00
2013,08,09,01,22,17.00
2013,08,09,01,23,17.00
2013,08,09,01,24,17.00
2013,08,09,01,25,17.00
2013,08,09,01,26,17.00
2013,08,09,01,27,17.00
2013,08,09,01,28,17.00
2013,08,09,01,29,17.00
2013,08,09,01,30,17.00
2013,08,09,01,31,17.00
2013,08,09,01,32,17.00
2013,08,09,01,33,16.90
2013,08,09,01,34,16.90
2013,08,09,01,35,16.90
2013,08,09,01,36,16.90
2013,08,09,01,37,16.80
2013,08,09,01,38,16.80
2013,08,09,01,39,16.80
2013,08,09,01,40,16.70
2013,08,09,01,41,16.70
2013,08,09,01,42,16.70
2013,08,09,01,43,16.70
2013,08,09,01,44,16.70
2013,08,09,01,45,16.70
2013,08,09,01,46,16.60
2013,08,09,01,47,16.60
2013,08,09,01,48,16.60
2013,08,09,01,49,16.40
2013,08,09,01,50,16.40
2013,08,09,01,51,16.40
2013,08,09,01,52,16.40
2013,08,09,01,53,16.40
2013,08,09,01,54,16.30
2013,08,09,01,55,16.30
2013,08,09,01,56,16.30
2013,08,09,01,57,16.30
2013,08,09,01,58,16.30
2013,08,09,01,59,16.20
2013,08,09,02,00,16.20
2013,08,09,02,01,16.20
2013,08,09,02,02,16.10
2013,08,09,02,03,16.10
2013,08,09,02,04,16.10
2013,08,09,02,05,16.10
2013,08,09,02,06,16.10
2013,08,09,02,07,16.00
2013,08,09,02,08,15.90
2013,08,09,02,09,15.90
2013,08,09,02,10,15.80
2013,08,09,02,11,15.80
2013,08,09,02,12,15.80
2013,08,09,02,13,15.80
2013,08,09,02,14,15.80
2013,08,09,02,15,15.80
2013,08,09,02,16,15.80
2013,08,09,02,17,15.80
2013,08,09,02,18,15.70
2013,08,09,02,19,15.70
2013,08,09,02,20,15.70
2013,08,09,02,21,15.70
2013,08,09,02,22,15.70
2013,08,09,02,23,15.60
2013,08,09,02,24,15.60
2013,08,09,02,25,15.60
2013,08,09,02,26,15.60
2013,08,09,02,27,15.60
2013,08,09,02,28,15.60
2013,08,09,02,29,15.50
2013,08,09,02,30,15.50
2013,08,09,02,31,15.50
2013,08,09,02,32,15.50
2013,08,09,02,33,15.50
2013,08,09,02,34,15.50
2013,08,09,02,35,15.40
2013,08,09,02,36,15.40
2013,08,09,02,37,15.40
2013,08,09,02,38,15.40
2013,08,09,02,39,15.40
2013,08,09,02,40,15.30
2013,08,09,02,41,15.30
2013,08,09,02,42,15.30
2013,08,09,02,43,15.30
2013,08,09,02,44,15.30
2013,08,09,02,45,15.30
2013,08,09,02,46,15.30
2013,08,09,02,47,15.20
2013,08,09,02,48,15.20
2013,08,09,02,49,15.20
2013,08,09,02,50,15.20
2013,08,09,02,51,15.10
2013,08,09,02,52,15.10
2013,08,09,02,53,15.10
2013,08,09,02,54,15.10
2013,08,09,02,55,15.00
2013,08,09,02,56,15.00
2013,08,09,02,57,15.00
2013,08,09,02,58,14.90
2013,08,09,02,59,14.90
2013,08,09,03,00,14.80
2013,08,09,03,01,14.80
2013,08,09,03,02,14.80
2013,08,09,03,03,14.80
2013,08,09,03,04,14.80
2013,08,09,03,05,14.70
2013,08,09,03,06,14.70
2013,08,09,03,07,14.70
2013,08,09,03,08,14.60
2013,08,09,03,09,14.60
2013,08,09,03,10,14.60
2013,08,09,03,11,14.60
2013,08,09,03,12,14.50
2013,08,09,03,13,14.50
2013,08,09,03,14,14.50
2013,08,09,03,15,14.50
2013,08,09,03,16,14.40
2013,08,09,03,17,14.40
2013,08,09,03,18,14.40
2013,08,09,03,19,14.40
2013,08,09,03,20,14.40
2013,08,09,03,21,14.30
2013,08,09,03,22,14.30
2013,08,09,03,23,14.30
2013,08,09,03,24,14.30
2013,08,09,03,25,14.30
2013,08,09,03,26,14.20
2013,08,09,03,27,14.20
2013,08,09,03,28,14.20
2013,08,09,03,29,14.20
2013,08,09,03,30,14.20
2013,08,09,03,31,14.20
2013,08,09,03,32,14.20
2013,08,09,03,33,14.20
2013,08,09,03,34,14.20
2013,08,09,03,35,14.20
2013,08,09,03,36,14.20
2013,08,09,03,37,14.20
2013,08,09,03,38,14.20
2013,08,09,03,39,14.20
2013,08,09,03,40,14.20
2013,08,09,03,41,14.20
2013,08,09,03,42,14.20
2013,08,09,03,43,14.20
2013,08,09,03,44,14.20
2013,08,09,03,45,14.20
2013,08,09,03,46,14.20
2013,08,09,03,47,14.20
2013,08,09,03,48,14.20
2013,08,09,03,49,14.10
2013,08,09,03,50,14.10
2013,08,09,03,51,14.10
2013,08,09,03,52,14.10
2013,08,09,03,53,14.10
2013,08,09,03,54,14.10
2013,08,09,03,55,14.10
2013,08,09,03,56,14.10
2013,08,09,03,57,14.10
2013,08,09,03,58,14.10
2013,08,09,03,59,14.10
2013,08,09,04,00,14.10
2013,08,09,04,01,14.10
2013,08,09,04,02,14.10
2013,08,09,04,03,14.10
2013,08,09,04,04,14.10
2013,08,09,04,05,14.10
2013,08,09,04,06,14.10
2013,08,09,04,07,14.10
2013,08,09,04,08,14.10
2013,08,09,04,09,14.10
2013,08,09,04,10,14.10
2013,08,09,04,11,14.00
2013,08,09,04,12,14.00
2013,08,09,04,13,14.00
2013,08,09,04,14,14.00
2013,08,09,04,15,14.00
2013,08,09,04,16,14.00
2013,08,09,04,17,14.00
2013,08,09,04,18,14.00
2013,08,09,04,19,14.00
2013,08,09,04,20,14.00
2013,08,09,04,21,14.00
2013,08,09,04,22,14.00
2013,08,09,04,23,14.00
2013,08,09,04,24,14.00
2013,08,09,04,25,14.00
2013,08,09,04,26,14.00
2013,08,09,04,27,14.10
2013,08,09,04,28,14.10
2013,08,09,04,29,14.10
2013,08,09,04,30,14.10
2013,08,09,04,31,14.10
2013,08,09,04,32,14.10
2013,08,09,04,33,14.20
2013,08,09,04,34,14.20
2013,08,09,04,35,14.20
2013,08,09,04,36,14.10
2013,08,09,04,37,14.10
2013,08,09,04,38,14.10
2013,08,09,04,39,14.10
2013,08,09,04,40,14.10
2013,08,09,04,41,14.10
2013,08,09,04,42,14.00
2013,08,09,04,43,14.00
2013,08,09,04,44,14.00
2013,08,09,04,45,14.00
2013,08,09,04,46,13.90
2013,08,09,04,47,13.90
2013,08,09,04,48,13.90
2013,08,09,04,49,13.90
2013,08,09,04,50,13.80
2013,08,09,04,51,13.80
2013,08,09,04,52,13.80
2013,08,09,04,53,13.70
2013,08,09,04,54,13.70
2013,08,09,04,55,13.70
2013,08,09,04,56,13.70
2013,08,09,04,57,13.70
2013,08,09,04,58,13.70
2013,08,09,04,59,13.70
2013,08,09,05,00,13.70
2013,08,09,05,01,13.60
2013,08,09,05,02,13.60
2013,08,09,05,03,13.60
2013,08,09,05,04,13.60
2013,08,09,05,05,13.60
2013,08,09,05,06,13.60
2013,08,09,05,07,13.60
2013,08,09,05,08,13.50
2013,08,09,05,09,13.50
2013,08,09,05,10,13.50
2013,08,09,05,11,13.50
2013,08,09,05,12,13.50
2013,08,09,05,13,13.50
2013,08,09,05,14,13.50
2013,08,09,05,15,13.50
2013,08,09,05,16,13.50
2013,08,09,05,17,13.50
2013,08,09,05,18,13.50
2013,08,09,05,19,13.50
2013,08,09,05,20,13.40
2013,08,09,05,21,13.40
2013,08,09,05,22,13.40
2013,08,09,05,23,13.40
2013,08,09,05,24,13.40
2013,08,09,05,25,13.40
2013,08,09,05,26,13.40
2013,08,09,05,27,13.40
2013,08,09,05,28,13.40
2013,08,09,05,29,13.40
2013,08,09,05,30,13.30
2013,08,09,05,31,13.40
2013,08,09,05,32,13.30
2013,08,09,05,33,13.30
2013,08,09,05,34,13.30
2013,08,09,05,35,13.30
2013,08,09,05,36,13.30
2013,08,09,05,37,13.30
2013,08,09,05,38,13.30
2013,08,09,05,39,13.30
2013,08,09,05,40,13.30
2013,08,09,05,41,13.30
2013,08,09,05,42,13.30
2013,08,09,05,43,13.30
2013,08,09,05,44,13.30
2013,08,09,05,45,13.30
2013,08,09,05,46,13.30
2013,08,09,05,47,13.30
2013,08,09,05,48,13.30
2013,08,09,05,49,13.30
2013,08,09,05,50,13.30
2013,08,09,05,51,13.20
2013,08,09,05,52,13.20
2013,08,09,05,53,13.20
2013,08,09,05,54,13.20
2013,08,09,05,55,13.20
2013,08,09,05,56,13.20
2013,08,09,05,57,13.20
2013,08,09,05,58,13.20
2013,08,09,05,59,13.20
2013,08,09,06,00,13.20
2013,08,09,06,01,13.10
2013,08,09,06,02,13.10
2013,08,09,06,03,13.10
2013,08,09,06,04,13.10
2013,08,09,06,05,13.10
2013,08,09,06,06,13.10
2013,08,09,06,07,13.10
2013,08,09,06,08,13.10
2013,08,09,06,09,13.00
2013,08,09,06,10,13.00
2013,08,09,06,11,13.00
2013,08,09,06,12,13.00
2013,08,09,06,13,13.00
2013,08,09,06,14,13.00
2013,08,09,06,15,13.00
2013,08,09,06,16,13.00
2013,08,09,06,17,13.00
2013,08,09,06,18,13.10
2013,08,09,06,19,13.10
2013,08,09,06,20,13.10
2013,08,09,06,21,13.10
2013,08,09,06,22,13.20
2013,08,09,06,23,13.20
2013,08,09,06,24,13.20
2013,08,09,06,25,13.20
2013,08,09,06,26,13.20
2013,08,09,06,27,13.30
2013,08,09,06,28,13.30
2013,08,09,06,29,13.30
2013,08,09,06,30,13.30
2013,08,09,06,31,13.30
2013,08,09,06,32,13.40
2013,08,09,06,33,13.40
2013,08,09,06,34,13.50
2013,08,09,06,35,13.50
2013,08,09,06,36,13.50
2013,08,09,06,37,13.50
2013,08,09,06,38,13.60
2013,08,09,06,39,13.60
2013,08,09,06,40,13.60
2013,08,09,06,41,13.60
2013,08,09,06,42,13.60
2013,08,09,06,43,13.60
2013,08,09,06,44,13.60
2013,08,09,06,45,13.70
2013,08,09,06,46,13.70
2013,08,09,06,47,13.70
2013,08,09,06,48,13.70
2013,08,09,06,49,13.70
2013,08,09,06,50,13.70
2013,08,09,06,51,13.70
2013,08,09,06,52,13.70
2013,08,09,06,53,13.70
2013,08,09,06,54,13.70
2013,08,09,06,55,13.70
2013,08,09,06,56,13.70
2013,08,09,06,57,13.70
2013,08,09,06,58,13.70
2013,08,09,06,59,13.70
2013,08,09,07,00,13.70
2013,08,09,07,01,13.70
2013,08,09,07,02,13.80
2013,08,09,07,03,13.80
2013,08,09,07,04,13.90
2013,08,09,07,05,13.90
2013,08,09,07,06,13.90
2013,08,09,07,07,14.00
2013,08,09,07,08,14.00
2013,08,09,07,09,14.10
2013,08,09,07,10,14.10
2013,08,09,07,11,14.20
2013,08,09,07,12,14.20
2013,08,09,07,13,14.20
2013,08,09,07,14,14.30
2013,08,09,07,15,14.40
2013,08,09,07,16,14.50
2013,08,09,07,17,14.60
2013,08,09,07,18,14.60
2013,08,09,07,19,14.70
2013,08,09,07,20,14.80
2013,08,09,07,21,14.80
2013,08,09,07,22,14.90
2013,08,09,07,23,14.90
2013,08,09,07,24,14.90
2013,08,09,07,25,15.00
2013,08,09,07,26,15.00
2013,08,09,07,27,15.00
2013,08,09,07,28,15.00
2013,08,09,07,29,15.10
2013,08,09,07,30,15.10
2013,08,09,07,31,15.20
2013,08,09,07,32,15.20
2013,08,09,07,33,15.20
2013,08,09,07,34,15.20
2013,08,09,07,35,15.20
2013,08,09,07,36,15.20
2013,08,09,07,37,15.10
2013,08,09,07,38,15.10
2013,08,09,07,39,15.10
2013,08,09,07,40,15.10
2013,08,09,07,41,15.20
2013,08,09,07,42,15.30
2013,08,09,07,43,15.30
2013,08,09,07,44,15.40
2013,08,09,07,45,15.40
2013,08,09,07,46,15.50
2013,08,09,07,47,15.50
2013,08,09,07,48,15.50
2013,08,09,07,49,15.50
2013,08,09,07,50,15.60
2013,08,09,07,51,15.60
2013,08,09,07,52,15.60
2013,08,09,07,53,15.70
2013,08,09,07,54,15.80
2013,08,09,07,55,15.90
2013,08,09,07,56,16.00
2013,08,09,07,57,16.10
2013,08,09,07,58,16.20
2013,08,09,07,59,16.30
2013,08,09,08,00,16.30
2013,08,09,08,01,16.40
2013,08,09,08,02,16.50
2013,08,09,08,03,16.60
2013,08,09,08,04,16.70
2013,08,09,08,05,16.70
2013,08,09,08,06,16.70
2013,08,09,08,07,16.70
2013,08,09,08,08,16.70
2013,08,09,08,09,16.80
2013,08,09,08,10,16.90
2013,08,09,08,11,16.90
2013,08,09,08,12,17.00
2013,08,09,08,13,16.90
2013,08,09,08,14,16.80
2013,08,09,08,15,16.70
2013,08,09,08,16,16.60
2013,08,09,08,17,16.60
2013,08,09,08,18,16.50
2013,08,09,08,19,16.40
2013,08,09,08,20,16.40
2013,08,09,08,21,16.40
2013,08,09,08,22,16.40
2013,08,09,08,23,16.50
2013,08,09,08,24,16.60
2013,08,09,08,25,16.60
2013,08,09,08,26,16.70
2013,08,09,08,27,16.80
2013,08,09,08,28,16.90
2013,08,09,08,29,17.00
2013,08,09,08,30,17.10
2013,08,09,08,31,17.20
2013,08,09,08,32,17.20
2013,08,09,08,33,17.30
2013,08,09,08,34,17.30
2013,08,09,08,35,17.30
2013,08,09,08,36,17.30
2013,08,09,08,37,17.30
2013,08,09,08,38,17.30
2013,08,09,08,39,17.30
2013,08,09,08,40,17.40
2013,08,09,08,41,17.40
2013,08,09,08,42,17.50
2013,08,09,08,43,17.50
2013,08,09,08,44,17.60
2013,08,09,08,45,17.70
2013,08,09,08,46,17.70
2013,08,09,08,47,17.80
2013,08,09,08,48,17.80
2013,08,09,08,49,17.90
2013,08,09,08,50,17.90
2013,08,09,08,51,17.90
2013,08,09,08,52,17.90
2013,08,09,08,53,18.00
2013,08,09,08,54,18.10
2013,08,09,08,55,18.10
2013,08,09,08,56,18.10
2013,08,09,08,57,18.20
2013,08,09,08,58,18.20
2013,08,09,08,59,18.20
2013,08,09,09,00,18.30
2013,08,09,09,01,18.40
2013,08,09,09,02,18.40
2013,08,09,09,03,18.50
2013,08,09,09,04,18.60
2013,08,09,09,05,18.60
2013,08,09,09,06,18.70
2013,08,09,09,07,18.80
2013,08,09,09,08,18.80
2013,08,09,09,09,18.90
2013,08,09,09,10,19.00
2013,08,09,09,11,19.10
2013,08,09,09,12,19.30
2013,08,09,09,13,19.40
2013,08,09,09,14,19.60
2013,08,09,09,15,19.70
2013,08,09,09,16,19.70
2013,08,09,09,17,19.80
2013,08,09,09,18,19.90
2013,08,09,09,19,20.00
2013,08,09,09,20,20.10
2013,08,09,09,21,20.20
2013,08,09,09,22,20.20
2013,08,09,09,23,20.30
2013,08,09,09,24,20.40
2013,08,09,09,25,20.40
2013,08,09,09,26,20.40
2013,08,09,09,27,20.40
2013,08,09,09,28,20.60
2013,08,09,09,29,20.80
2013,08,09,09,30,21.00
2013,08,09,09,31,21.00
2013,08,09,09,32,21.10
2013,08,09,09,33,21.20
2013,08,09,09,34,21.30
2013,08,09,09,35,21.40
2013,08,09,09,36,21.50
2013,08,09,09,37,21.60
2013,08,09,09,38,21.60
2013,08,09,09,39,21.60
2013,08,09,09,40,21.80
2013,08,09,09,41,21.90
2013,08,09,09,42,22.00
2013,08,09,09,43,22.10
2013,08,09,09,44,22.10
2013,08,09,09,45,22.20
2013,08,09,09,46,22.30
2013,08,09,09,47,22.00
2013,08,09,09,48,21.60
2013,08,09,09,49,21.20
2013,08,09,09,50,20.70
2013,08,09,09,51,20.30
2013,08,09,09,52,19.90
2013,08,09,09,53,19.60
2013,08,09,09,54,19.30
2013,08,09,09,55,19.10
2013,08,09,09,56,19.10
2013,08,09,09,57,19.10
2013,08,09,09,58,19.00
2013,08,09,09,59,18.90
2013,08,09,10,00,18.80
2013,08,09,10,01,18.70
2013,08,09,10,02,18.60
2013,08,09,10,03,18.60
2013,08,09,10,04,18.60
2013,08,09,10,05,18.50
2013,08,09,10,06,18.50
2013,08,09,10,07,18.40
2013,08,09,10,08,18.40
2013,08,09,10,09,18.50
2013,08,09,10,10,18.60
2013,08,09,10,11,18.70
2013,08,09,10,12,18.80
2013,08,09,10,13,18.80
2013,08,09,10,14,18.70
2013,08,09,10,15,18.70
2013,08,09,10,16,18.80
2013,08,09,10,17,18.90
2013,08,09,10,18,19.00
2013,08,09,10,19,19.10
2013,08,09,10,20,19.20
2013,08,09,10,21,19.30
2013,08,09,10,22,19.40
2013,08,09,10,23,19.50
2013,08,09,10,24,19.60
2013,08,09,10,25,19.70
2013,08,09,10,26,19.90
2013,08,09,10,27,19.90
2013,08,09,10,28,19.90
2013,08,09,10,29,20.00
2013,08,09,10,30,20.10
2013,08,09,10,31,20.00
2013,08,09,10,32,19.90
2013,08,09,10,33,19.90
2013,08,09,10,34,19.90
2013,08,09,10,35,19.90
2013,08,09,10,36,19.90
2013,08,09,10,37,20.00
2013,08,09,10,38,20.10
2013,08,09,10,39,20.00
2013,08,09,10,40,19.90
2013,08,09,10,41,19.90
2013,08,09,10,42,19.90
2013,08,09,10,43,20.00
2013,08,09,10,44,20.10
2013,08,09,10,45,20.20
2013,08,09,10,46,20.20
2013,08,09,10,47,20.20
2013,08,09,10,48,20.20
2013,08,09,10,49,20.20
2013,08,09,10,50,20.40
2013,08,09,10,51,20.40
2013,08,09,10,52,20.50
2013,08,09,10,53,20.60
2013,08,09,10,54,20.80
2013,08,09,10,55,20.80
2013,08,09,10,56,21.00
2013,08,09,10,57,21.00
2013,08,09,10,58,21.10
2013,08,09,10,59,21.10
2013,08,09,11,00,21.20
2013,08,09,11,01,21.30
2013,08,09,11,02,21.30
2013,08,09,11,03,21.30
2013,08,09,11,04,21.30
2013,08,09,11,05,21.30
2013,08,09,11,06,21.50
2013,08,09,11,07,21.60
2013,08,09,11,08,21.80
2013,08,09,11,09,21.90
2013,08,09,11,10,22.00
2013,08,09,11,11,22.00
2013,08,09,11,12,22.00
2013,08,09,11,13,22.10
2013,08,09,11,14,22.10
2013,08,09,11,15,22.10
2013,08,09,11,16,22.10
2013,08,09,11,17,22.00
2013,08,09,11,18,21.90
2013,08,09,11,19,21.90
2013,08,09,11,20,21.90
2013,08,09,11,21,21.80
2013,08,09,11,22,21.70
2013,08,09,11,23,21.60
2013,08,09,11,24,21.60
2013,08,09,11,25,21.50
2013,08,09,11,26,21.40
2013,08,09,11,27,21.40
2013,08,09,11,28,21.40
2013,08,09,11,29,21.40
2013,08,09,11,30,21.40
2013,08,09,11,31,21.40
2013,08,09,11,32,21.30
2013,08,09,11,33,21.30
2013,08,09,11,34,21.20
2013,08,09,11,35,21.10
2013,08,09,11,36,21.00
2013,08,09,11,37,21.00
2013,08,09,11,38,21.00
2013,08,09,11,39,21.00
2013,08,09,11,40,21.00
2013,08,09,11,41,21.00
2013,08,09,11,42,20.90
2013,08,09,11,43,20.90
2013,08,09,11,44,20.80
2013,08,09,11,45,20.80
2013,08,09,11,46,20.80
2013,08,09,11,47,20.70
2013,08,09,11,48,20.70
2013,08,09,11,49,20.80
2013,08,09,11,50,20.80
2013,08,09,11,51,20.90
2013,08,09,11,52,20.90
2013,08,09,11,53,20.90
2013,08,09,11,54,20.90
2013,08,09,11,55,20.90
2013,08,09,11,56,20.80
2013,08,09,11,57,20.80
2013,08,09,11,58,20.80
2013,08,09,11,59,20.80
2013,08,09,12,00,20.80
2013,08,09,12,01,20.80
2013,08,09,12,02,20.90
2013,08,09,12,03,20.90
2013,08,09,12,04,20.90
2013,08,09,12,05,20.80
2013,08,09,12,06,20.90
2013,08,09,12,07,20.90
2013,08,09,12,08,21.00
2013,08,09,12,09,21.00
2013,08,09,12,10,21.00
2013,08,09,12,11,20.90
2013,08,09,12,12,20.80
2013,08,09,12,13,20.90
2013,08,09,12,14,21.00
2013,08,09,12,15,21.00
2013,08,09,12,16,21.00
2013,08,09,12,17,21.00
2013,08,09,12,18,20.90
2013,08,09,12,19,21.00
2013,08,09,12,20,21.10
2013,08,09,12,21,21.20
2013,08,09,12,22,21.30
2013,08,09,12,23,21.30
2013,08,09,12,24,21.30
2013,08,09,12,25,21.40
2013,08,09,12,26,21.60
2013,08,09,12,27,21.60
2013,08,09,12,28,21.70
2013,08,09,12,29,21.80
2013,08,09,12,30,21.90
2013,08,09,12,31,22.10
2013,08,09,12,32,22.20
2013,08,09,12,33,22.30
2013,08,09,12,34,22.30
2013,08,09,12,35,22.20
2013,08,09,12,36,22.10
2013,08,09,12,37,22.00
2013,08,09,12,38,22.00
2013,08,09,12,39,21.90
2013,08,09,12,40,21.90
2013,08,09,12,41,22.00
2013,08,09,12,42,22.00
2013,08,09,12,43,22.00
2013,08,09,12,44,21.90
2013,08,09,12,45,21.80
2013,08,09,12,46,21.70
2013,08,09,12,47,21.80
2013,08,09,12,48,21.90
2013,08,09,12,49,21.90
2013,08,09,12,50,21.80
2013,08,09,12,51,21.80
2013,08,09,12,52,21.80
2013,08,09,12,53,21.80
2013,08,09,12,54,21.80
2013,08,09,12,55,21.70
2013,08,09,12,56,21.60
2013,08,09,12,57,21.60
2013,08,09,12,58,21.60
2013,08,09,12,59,21.70
2013,08,09,13,00,21.90
2013,08,09,13,01,21.90
2013,08,09,13,02,22.00
2013,08,09,13,03,22.20
2013,08,09,13,04,22.30
2013,08,09,13,05,22.20
2013,08,09,13,06,22.20
2013,08,09,13,07,22.20
2013,08,09,13,08,22.10
2013,08,09,13,09,22.00
2013,08,09,13,10,21.90
2013,08,09,13,11,21.80
2013,08,09,13,12,21.80
2013,08,09,13,13,21.70
2013,08,09,13,14,21.80
2013,08,09,13,15,21.80
2013,08,09,13,16,21.90
2013,08,09,13,17,21.90
2013,08,09,13,18,21.80
2013,08,09,13,19,21.70
2013,08,09,13,20,21.60
2013,08,09,13,21,21.50
2013,08,09,13,22,21.30
2013,08,09,13,23,21.30
2013,08,09,13,24,21.30
2013,08,09,13,25,21.30
2013,08,09,13,26,21.30
2013,08,09,13,27,21.40
2013,08,09,13,28,21.30
2013,08,09,13,29,21.40
2013,08,09,13,30,21.40
2013,08,09,13,31,21.40
2013,08,09,13,32,21.60
2013,08,09,13,33,21.70
2013,08,09,13,34,21.70
2013,08,09,13,35,21.70
2013,08,09,13,36,21.70
2013,08,09,13,37,21.80
2013,08,09,13,38,21.90
2013,08,09,13,39,21.90
2013,08,09,13,40,22.00
2013,08,09,13,41,22.00
2013,08,09,13,42,22.10
2013,08,09,13,43,22.10
2013,08,09,13,44,22.10
2013,08,09,13,45,22.10
2013,08,09,13,46,22.00
2013,08,09,13,47,21.90
2013,08,09,13,48,21.80
2013,08,09,13,49,21.80
2013,08,09,13,50,21.70
2013,08,09,13,51,21.60
2013,08,09,13,52,21.60
2013,08,09,13,53,21.70
2013,08,09,13,54,21.90
2013,08,09,13,55,22.00
2013,08,09,13,56,22.00
2013,08,09,13,57,22.00
2013,08,09,13,58,22.20
2013,08,09,13,59,22.30
2013,08,09,14,00,22.30
2013,08,09,14,01,22.30
2013,08,09,14,02,22.30
2013,08,09,14,03,22.30
2013,08,09,14,04,22.30
2013,08,09,14,05,22.30
2013,08,09,14,06,22.20
2013,08,09,14,07,22.20
2013,08,09,14,08,22.10
2013,08,09,14,09,22.10
2013,08,09,14,10,22.00
2013,08,09,14,11,21.90
2013,08,09,14,12,21.80
2013,08,09,14,13,21.70
2013,08,09,14,14,21.70
2013,08,09,14,15,21.70
2013,08,09,14,16,21.70
2013,08,09,14,17,21.70
2013,08,09,14,18,21.70
2013,08,09,14,19,21.80
2013,08,09,14,20,21.80
2013,08,09,14,21,21.90
2013,08,09,14,22,21.90
2013,08,09,14,23,22.00
2013,08,09,14,24,22.10
2013,08,09,14,25,22.20
2013,08,09,14,26,22.30
2013,08,09,14,27,22.30
2013,08,09,14,28,22.30
2013,08,09,14,29,22.30
2013,08,09,14,30,22.30
2013,08,09,14,31,22.30
2013,08,09,14,32,22.30
2013,08,09,14,33,22.40
2013,08,09,14,34,22.50
2013,08,09,14,35,22.50
2013,08,09,14,36,22.60
2013,08,09,14,37,22.60
2013,08,09,14,38,22.60
2013,08,09,14,39,22.70
2013,08,09,14,40,22.70
2013,08,09,14,41,22.80
2013,08,09,14,42,22.80
2013,08,09,14,43,22.70
2013,08,09,14,44,22.60
2013,08,09,14,45,22.60
2013,08,09,14,46,22.60
2013,08,09,14,47,22.60
2013,08,09,14,48,22.60
2013,08,09,14,49,22.60
2013,08,09,14,50,22.50
2013,08,09,14,51,22.30
2013,08,09,14,52,22.30
2013,08,09,14,53,22.30
2013,08,09,14,54,22.30
2013,08,09,14,55,22.30
2013,08,09,14,56,22.40
2013,08,09,14,57,22.50
2013,08,09,14,58,22.60
2013,08,09,14,59,22.70
2013,08,09,15,00,22.80
2013,08,09,15,01,22.90
2013,08,09,15,02,22.90
2013,08,09,15,03,22.90
2013,08,09,15,04,22.70
2013,08,09,15,05,22.60
2013,08,09,15,06,22.60
2013,08,09,15,07,22.60
2013,08,09,15,08,22.50
2013,08,09,15,09,22.50
2013,08,09,15,10,22.60
2013,08,09,15,11,22.60
2013,08,09,15,12,22.70
2013,08,09,15,13,22.80
2013,08,09,15,14,22.80
2013,08,09,15,15,22.90
2013,08,09,15,16,23.00
2013,08,09,15,17,23.20
2013,08,09,15,18,23.30
2013,08,09,15,19,23.30
2013,08,09,15,20,23.30
2013,08,09,15,21,23.30
2013,08,09,15,22,23.40
2013,08,09,15,23,23.40
2013,08,09,15,24,23.50
2013,08,09,15,25,23.60
2013,08,09,15,26,23.60
2013,08,09,15,27,23.60
2013,08,09,15,28,23.50
2013,08,09,15,29,23.40
2013,08,09,15,30,23.40
2013,08,09,15,31,23.50
2013,08,09,15,32,23.60
2013,08,09,15,33,23.60
2013,08,09,15,34,23.60
2013,08,09,15,35,23.60
2013,08,09,15,36,23.70
2013,08,09,15,37,23.70
2013,08,09,15,38,23.70
2013,08,09,15,39,23.70
2013,08,09,15,40,23.80
2013,08,09,15,41,23.80
2013,08,09,15,42,23.80
2013,08,09,15,43,23.80
2013,08,09,15,44,23.70
2013,08,09,15,45,23.70
2013,08,09,15,46,23.70
2013,08,09,15,47,23.70
2013,08,09,15,48,23.70
2013,08,09,15,49,23.60
2013,08,09,15,50,23.60
2013,08,09,15,51,23.70
2013,08,09,15,52,23.70
2013,08,09,15,53,23.70
2013,08,09,15,54,23.80
2013,08,09,15,55,23.80
2013,08,09,15,56,23.80
2013,08,09,15,57,23.80
2013,08,09,15,58,23.90
2013,08,09,15,59,24.00
2013,08,09,16,00,24.10
2013,08,09,16,01,24.10
2013,08,09,16,02,24.30
2013,08,09,16,03,24.40
2013,08,09,16,04,24.50
2013,08,09,16,05,24.70
2013,08,09,16,06,24.80
2013,08,09,16,07,24.90
2013,08,09,16,08,25.10
2013,08,09,16,09,25.20
2013,08,09,16,10,25.20
2013,08,09,16,11,25.20
2013,08,09,16,12,25.20
2013,08,09,16,13,25.20
2013,08,09,16,14,25.20
2013,08,09,16,15,25.20
2013,08,09,16,16,25.30
2013,08,09,16,17,25.30
2013,08,09,16,18,25.30
2013,08,09,16,19,25.40
2013,08,09,16,20,25.40
2013,08,09,16,21,25.30
2013,08,09,16,22,25.20
2013,08,09,16,23,25.00
2013,08,09,16,24,25.00
2013,08,09,16,25,25.00
2013,08,09,16,26,25.10
2013,08,09,16,27,25.10
2013,08,09,16,28,25.30
2013,08,09,16,29,25.40
2013,08,09,16,30,25.60
2013,08,09,16,31,25.70
2013,08,09,16,32,25.80
2013,08,09,16,33,25.90
2013,08,09,16,34,26.00
2013,08,09,16,35,26.10
2013,08,09,16,36,26.20
2013,08,09,16,37,26.20
2013,08,09,16,38,26.10
2013,08,09,16,39,26.10
2013,08,09,16,40,26.10
2013,08,09,16,41,26.20
2013,08,09,16,42,26.20
2013,08,09,16,43,26.20
2013,08,09,16,44,26.10
2013,08,09,16,45,26.00
2013,08,09,16,46,26.00
2013,08,09,16,47,25.90
2013,08,09,16,48,25.80
2013,08,09,16,49,25.80
2013,08,09,16,50,25.80
2013,08,09,16,51,25.60
2013,08,09,16,52,25.50
2013,08,09,16,53,25.50
2013,08,09,16,54,25.50
2013,08,09,16,55,25.50
2013,08,09,16,56,25.40
2013,08,09,16,57,25.30
2013,08,09,16,58,25.30
2013,08,09,16,59,25.20
2013,08,09,17,00,25.10
2013,08,09,17,01,25.10
2013,08,09,17,02,25.00
2013,08,09,17,03,25.00
2013,08,09,17,04,25.00
2013,08,09,17,05,25.00
2013,08,09,17,06,25.00
2013,08,09,17,07,25.10
2013,08,09,17,08,25.10
2013,08,09,17,09,25.10
2013,08,09,17,10,25.00
2013,08,09,17,11,24.90
2013,08,09,17,12,25.00
2013,08,09,17,13,25.00
2013,08,09,17,14,25.10
2013,08,09,17,15,25.20
2013,08,09,17,16,25.30
2013,08,09,17,17,25.30
2013,08,09,17,18,25.30
2013,08,09,17,19,25.30